Location: Unspecified
(0.0000°N, 0.0000°E)
Time: 22:08:02
(UTC+00:00)

DMSP 5D-2 F13 DEB - Visible Passes

Search period start: 12 January 2025 00:00
Search period end: 22 January 2025 00:00
Orbit: 732 x 785 km, 98.8° (Epoch: 13 August)

Date Brightness Start Highest point End Pass type
(mag) Time Alt. Az. Time Alt. Az. Time Alt. Az.
12 Jan ? 18:31:04 10° ESE 18:34:13 17° ENE 18:37:19 10° NE visible
12 Jan ? 20:08:08 10° SSW 20:11:57 24° WSW 20:15:47 10° NW visible
13 Jan ? 19:17:27 10° SSE 19:22:13 74° ENE 19:26:59 10° N visible
14 Jan ? 20:06:14 10° SSW 20:10:10 26° WSW 20:14:06 10° NW visible
15 Jan ? 19:15:31 10° SSE 19:20:16 68° ENE 19:25:01 10° N visible
16 Jan ? 20:04:01 10° SSW 20:08:04 28° WSW 20:12:07 10° NW visible
17 Jan ? 19:13:18 10° SSE 19:18:01 63° ENE 19:22:45 10° N visible
18 Jan ? 20:01:30 10° SSW 20:05:40 30° WSW 20:09:50 10° NW visible
19 Jan ? 19:10:48 10° SSE 19:15:29 57° ENE 19:20:10 10° N visible
20 Jan ? 19:58:41 10° SSW 20:02:58 33° WSW 20:07:15 10° NW visible
21 Jan ? 19:08:00 10° SSE 19:12:38 51° ENE 19:17:16 10° N visible
